Time,TemperatureF,DewpointF,PressureIn,WindDirection,WindDirectionDegrees,WindSpeedMPH,WindSpeedGustMPH,Humidity,HourlyPrecipIn,Conditions,Clouds,dailyrainin,SoftwareType,DateUTC
2013-01-30 00:22:00,44.0,-99.9,-100.00,East,100,-999.0,-999.0,-999,-99.99,,,-99.99,,2013-01-30 05:22:00,
2013-01-30 00:33:00,44.0,-99.9,-100.00,East,100,-999.0,-999.0,-999,-99.99,,,-99.99,,2013-01-30 05:33:00,
2013-01-30 00:43:00,44.0,-99.9,-100.00,East,100,-999.0,-999.0,-999,-99.99,,,-99.99,,2013-01-30 05:43:00,
2013-01-30 00:52:00,44.0,-99.9,-100.00,East,100,-999.0,-999.0,-999,-99.99,,,-99.99,,2013-01-30 05:52:00,
2013-01-30 01:22:00,44.0,-99.9,-100.00,East,100,-999.0,-999.0,-999,-99.99,,,-99.99,,2013-01-30 06:22:00,
2013-01-30 01:32:00,44.0,-99.9,-100.00,East,100,-999.0,-999.0,-999,-99.99,,,-99.99,,2013-01-30 06:32:00,
2013-01-30 01:42:00,44.0,-99.9,-100.00,East,100,-999.0,-999.0,-999,-99.99,,,-99.99,,2013-01-30 06:42:00,
2013-01-30 01:52:00,42.0,-99.9,-100.00,East,100,-999.0,-999.0,-999,-99.99,,,-99.99,,2013-01-30 06:52:00,
2013-01-30 02:22:00,42.0,-99.9,-100.00,East,100,-999.0,-999.0,-999,-99.99,,,-99.99,,2013-01-30 07:22:00,
2013-01-30 02:32:00,42.0,-99.9,-100.00,East,100,-999.0,-999.0,-999,-99.99,,,-99.99,,2013-01-30 07:32:00,
2013-01-30 02:42:00,42.0,-99.9,-100.00,East,100,-999.0,-999.0,-999,-99.99,,,-99.99,,2013-01-30 07:42:00,
2013-01-30 02:52:00,42.0,-99.9,-100.00,East,100,-999.0,-999.0,-999,-99.99,,,-99.99,,2013-01-30 07:52:00,
2013-01-30 03:32:00,42.0,-99.9,-100.00,East,100,-999.0,-999.0,-999,-99.99,,,-99.99,,2013-01-30 08:32:00,
2013-01-30 03:42:00,42.0,-99.9,-100.00,East,100,-999.0,-999.0,-999,-99.99,,,-99.99,,2013-01-30 08:42:00,
2013-01-30 03:52:00,43.0,-99.9,-100.00,SSW,205,-999.0,9.0,-999,-99.99,,,-99.99,,2013-01-30 08:52:00,
2013-01-30 04:22:00,43.0,-99.9,-100.00,SSW,205,-999.0,9.0,-999,-99.99,,,-99.99,,2013-01-30 09:22:00,
2013-01-30 04:32:00,43.0,-99.9,-100.00,SSW,205,-999.0,9.0,-999,-99.99,,,-99.99,,2013-01-30 09:32:00,
2013-01-30 04:42:00,43.0,-99.9,-100.00,SSW,205,-999.0,9.0,-999,-99.99,,,-99.99,,2013-01-30 09:42:00,
2013-01-30 04:52:00,43.0,-99.9,-100.00,NE,56,-999.0,8.0,-999,-99.99,,,-99.99,,2013-01-30 09:52:00,
2013-01-30 05:22:00,43.0,-99.9,-100.00,NE,56,-999.0,8.0,-999,-99.99,,,-99.99,,2013-01-30 10:22:00,
2013-01-30 05:32:00,43.0,-99.9,-100.00,NE,56,-999.0,8.0,-999,-99.99,,,-99.99,,2013-01-30 10:32:00,
2013-01-30 05:42:00,43.0,-99.9,-100.00,NE,56,-999.0,8.0,-999,-99.99,,,-99.99,,2013-01-30 10:42:00,
2013-01-30 05:52:00,41.0,-99.9,-100.00,SSW,209,6.0,7.0,-999,-99.99,,,-99.99,,2013-01-30 10:52:00,
2013-01-30 06:22:00,41.0,-99.9,-100.00,SSW,209,6.0,7.0,-999,-99.99,,,-99.99,,2013-01-30 11:22:00,
2013-01-30 06:33:00,41.0,-99.9,-100.00,SSW,209,6.0,7.0,-999,-99.99,,,-99.99,,2013-01-30 11:33:00,
2013-01-30 06:42:00,41.0,-99.9,-100.00,SSW,209,6.0,7.0,-999,-99.99,,,-99.99,,2013-01-30 11:42:00,
2013-01-30 07:22:00,43.0,-99.9,-100.00,SSW,203,-999.0,9.0,-999,-99.99,,,-99.99,,2013-01-30 12:22:00,
2013-01-30 07:33:00,43.0,-99.9,-100.00,SSW,203,-999.0,9.0,-999,-99.99,,,-99.99,,2013-01-30 12:33:00,
2013-01-30 07:43:00,43.0,-99.9,-100.00,SSW,203,-999.0,9.0,-999,-99.99,,,-99.99,,2013-01-30 12:43:00,
2013-01-30 07:52:00,44.0,-99.9,-100.00,SW,226,10.0,10.0,-999,-99.99,,,-99.99,,2013-01-30 12:52:00,
2013-01-30 08:23:00,44.0,-99.9,-100.00,SW,226,10.0,10.0,-999,-99.99,,,-99.99,,2013-01-30 13:23:00,
2013-01-30 08:33:00,44.0,-99.9,-100.00,SW,226,10.0,10.0,-999,-99.99,,,-99.99,,2013-01-30 13:33:00,
2013-01-30 08:43:00,44.0,-99.9,-100.00,SW,226,10.0,10.0,-999,-99.99,,,-99.99,,2013-01-30 13:43:00,
2013-01-30 08:52:00,46.0,-99.9,-100.00,SW,222,13.0,15.0,-999,-99.99,,,-99.99,,2013-01-30 13:52:00,
2013-01-30 09:23:00,46.0,-99.9,-100.00,SW,222,13.0,15.0,-999,-99.99,,,-99.99,,2013-01-30 14:23:00,
2013-01-30 09:33:00,46.0,-99.9,-100.00,SW,222,13.0,15.0,-999,-99.99,,,-99.99,,2013-01-30 14:33:00,
2013-01-30 09:43:00,46.0,-99.9,-100.00,SW,222,13.0,15.0,-999,-99.99,,,-99.99,,2013-01-30 14:43:00,
2013-01-30 09:52:00,46.0,-99.9,-100.00,WSW,242,6.0,18.0,-999,-99.99,,,-99.99,,2013-01-30 14:52:00,
2013-01-30 10:24:00,46.0,-99.9,-100.00,WSW,242,6.0,18.0,-999,-99.99,,,-99.99,,2013-01-30 15:24:00,
2013-01-30 10:34:00,46.0,-99.9,-100.00,WSW,242,6.0,18.0,-999,-99.99,,,-99.99,,2013-01-30 15:34:00,
2013-01-30 10:44:00,46.0,-99.9,-100.00,WSW,242,6.0,18.0,-999,-99.99,,,-99.99,,2013-01-30 15:44:00,
2013-01-30 10:52:00,47.0,-99.9,-100.00,SSW,195,7.0,18.0,-999,-99.99,,,-99.99,,2013-01-30 15:52:00,
2013-01-30 11:23:00,47.0,-99.9,-100.00,SSW,195,7.0,18.0,-999,-99.99,,,-99.99,,2013-01-30 16:23:00,
2013-01-30 11:33:00,47.0,-99.9,-100.00,SSW,195,7.0,18.0,-999,-99.99,,,-99.99,,2013-01-30 16:33:00,
2013-01-30 11:42:00,47.0,-99.9,-100.00,SSW,195,7.0,18.0,-999,-99.99,,,-99.99,,2013-01-30 16:42:00,
2013-01-30 11:52:00,46.0,-99.9,-100.00,SW,222,3.0,16.0,-999,-99.99,,,-99.99,,2013-01-30 16:52:00,
2013-01-30 12:23:00,46.0,-99.9,-100.00,SW,222,3.0,16.0,-999,-99.99,,,-99.99,,2013-01-30 17:23:00,
2013-01-30 12:34:00,46.0,-99.9,-100.00,SW,222,3.0,16.0,-999,-99.99,,,-99.99,,2013-01-30 17:34:00,
2013-01-30 12:43:00,46.0,-99.9,-100.00,SW,222,3.0,16.0,-999,-99.99,,,-99.99,,2013-01-30 17:43:00,
2013-01-30 12:52:00,50.0,-99.9,-100.00,SSW,209,7.0,17.0,-999,-99.99,,,-99.99,,2013-01-30 17:52:00,
2013-01-30 13:24:00,50.0,-99.9,-100.00,SSW,209,7.0,17.0,-999,-99.99,,,-99.99,,2013-01-30 18:24:00,
2013-01-30 13:33:00,50.0,-99.9,-100.00,SSW,209,7.0,17.0,-999,-99.99,,,-99.99,,2013-01-30 18:33:00,
2013-01-30 13:43:00,50.0,-99.9,-100.00,SSW,209,7.0,17.0,-999,-99.99,,,-99.99,,2013-01-30 18:43:00,
2013-01-30 13:52:00,52.0,-99.9,-100.00,WSW,239,8.0,18.0,-999,-99.99,,,-99.99,,2013-01-30 18:52:00,
2013-01-30 14:23:00,52.0,-99.9,-100.00,WSW,239,8.0,18.0,-999,-99.99,,,-99.99,,2013-01-30 19:23:00,
2013-01-30 14:33:00,52.0,-99.9,-100.00,WSW,239,8.0,18.0,-999,-99.99,,,-99.99,,2013-01-30 19:33:00,
2013-01-30 14:44:00,52.0,-99.9,-100.00,WSW,239,8.0,18.0,-999,-99.99,,,-99.99,,2013-01-30 19:44:00,
2013-01-30 14:52:00,49.0,-99.9,-100.00,SSW,212,12.0,23.0,-999,-99.99,,,-99.99,,2013-01-30 19:52:00,
2013-01-30 15:22:00,49.0,-99.9,-100.00,SSW,212,12.0,23.0,-999,-99.99,,,-99.99,,2013-01-30 20:22:00,
2013-01-30 15:33:00,49.0,-99.9,-100.00,SSW,212,12.0,23.0,-999,-99.99,,,-99.99,,2013-01-30 20:33:00,
2013-01-30 15:43:00,49.0,-99.9,-100.00,SSW,212,12.0,23.0,-999,-99.99,,,-99.99,,2013-01-30 20:43:00,
2013-01-30 15:52:00,47.0,-99.9,-100.00,SW,226,2.0,14.0,-999,-99.99,,,-99.99,,2013-01-30 20:52:00,
2013-01-30 16:23:00,47.0,-99.9,-100.00,SW,226,2.0,14.0,-999,-99.99,,,-99.99,,2013-01-30 21:23:00,
2013-01-30 16:32:00,47.0,-99.9,-100.00,SW,226,2.0,14.0,-999,-99.99,,,-99.99,,2013-01-30 21:32:00,
2013-01-30 16:43:00,47.0,-99.9,-100.00,SW,226,2.0,14.0,-999,-99.99,,,-99.99,,2013-01-30 21:43:00,
2013-01-30 16:52:00,51.0,-99.9,-100.00,SSW,199,12.0,17.0,-999,-99.99,,,-99.99,,2013-01-30 21:52:00,
2013-01-30 17:23:00,51.0,-99.9,-100.00,SSW,199,12.0,17.0,-999,-99.99,,,-99.99,,2013-01-30 22:23:00,
2013-01-30 17:33:00,51.0,-99.9,-100.00,SSW,199,12.0,17.0,-999,-99.99,,,-99.99,,2013-01-30 22:33:00,
2013-01-30 17:43:00,51.0,-99.9,-100.00,SSW,199,12.0,17.0,-999,-99.99,,,-99.99,,2013-01-30 22:43:00,
2013-01-30 17:53:00,48.0,-99.9,-100.00,SW,218,12.0,16.0,-999,-99.99,,,-99.99,,2013-01-30 22:53:00,
2013-01-30 18:23:00,48.0,-99.9,-100.00,SW,218,12.0,16.0,-999,-99.99,,,-99.99,,2013-01-30 23:23:00,
2013-01-30 18:33:00,48.0,-99.9,-100.00,SW,218,12.0,16.0,-999,-99.99,,,-99.99,,2013-01-30 23:33:00,
2013-01-30 18:43:00,48.0,-99.9,-100.00,SW,218,12.0,16.0,-999,-99.99,,,-99.99,,2013-01-30 23:43:00,
2013-01-30 18:52:00,50.0,-99.9,-100.00,SSW,203,14.0,19.0,-999,-99.99,,,-99.99,,2013-01-30 23:52:00,
2013-01-30 19:32:00,50.0,-99.9,-100.00,SSW,203,14.0,19.0,-999,-99.99,,,-99.99,,2013-01-31 00:32:00,
2013-01-30 19:43:00,50.0,-99.9,-100.00,SSW,203,14.0,19.0,-999,-99.99,,,-99.99,,2013-01-31 00:43:00,
2013-01-30 19:52:00,53.0,-99.9,-100.00,SW,218,-999.0,15.0,-999,-99.99,,,-99.99,,2013-01-31 00:52:00,
2013-01-30 20:22:00,53.0,-99.9,-100.00,SW,218,-999.0,15.0,-999,-99.99,,,-99.99,,2013-01-31 01:22:00,
2013-01-30 20:32:00,53.0,-99.9,-100.00,SW,218,-999.0,15.0,-999,-99.99,,,-99.99,,2013-01-31 01:32:00,
2013-01-30 20:42:00,53.0,-99.9,-100.00,SW,218,-999.0,15.0,-999,-99.99,,,-99.99,,2013-01-31 01:42:00,
2013-01-30 20:52:00,51.0,-99.9,-100.00,NE,43,12.0,24.0,-999,-99.99,,,-99.99,,2013-01-31 01:52:00,
2013-01-30 21:22:00,51.0,-99.9,-100.00,NE,43,12.0,24.0,-999,-99.99,,,-99.99,,2013-01-31 02:22:00,
2013-01-30 21:32:00,51.0,-99.9,-100.00,NE,43,12.0,24.0,-999,-99.99,,,-99.99,,2013-01-31 02:32:00,
2013-01-30 21:42:00,51.0,-99.9,-100.00,NE,43,12.0,24.0,-999,-99.99,,,-99.99,,2013-01-31 02:42:00,
2013-01-30 21:52:00,52.0,-99.9,-100.00,SW,228,7.0,26.0,-999,-99.99,,,-99.99,,2013-01-31 02:52:00,
2013-01-30 22:22:00,52.0,-99.9,-100.00,SW,228,7.0,26.0,-999,-99.99,,,-99.99,,2013-01-31 03:22:00,
2013-01-30 22:33:00,52.0,-99.9,-100.00,SW,228,7.0,26.0,-999,-99.99,,,-99.99,,2013-01-31 03:33:00,
2013-01-30 22:42:00,52.0,-99.9,-100.00,SW,228,7.0,26.0,-999,-99.99,,,-99.99,,2013-01-31 03:42:00,
2013-01-30 22:52:00,51.0,-99.9,-100.00,SW,225,9.0,26.0,-999,-99.99,,,-99.99,,2013-01-31 03:52:00,
2013-01-30 23:22:00,51.0,-99.9,-100.00,SW,225,9.0,26.0,-999,-99.99,,,-99.99,,2013-01-31 04:22:00,
2013-01-30 23:32:00,51.0,-99.9,-100.00,SW,225,9.0,26.0,-999,-99.99,,,-99.99,,2013-01-31 04:32:00,
2013-01-30 23:42:00,51.0,-99.9,-100.00,SW,225,9.0,26.0,-999,-99.99,,,-99.99,,2013-01-31 04:42:00,
2013-01-30 23:52:00,51.0,-99.9,-100.00,SSW,210,5.0,24.0,-999,-99.99,,,-99.99,,2013-01-31 04:52:00,